When you browse on this site, cookies collect data to enhance your experience and personalize the content and advertising you see.
Visit our Privacy Policy to learn more. By continuing to use the site, you agree to this use of cookies and data.
  • en France
  • Liste des pays
  • À 7 jours
  • Température de l'eau
  • Carte satellitaire
  • Carte météo
  • Widgets météo
  • user-avatar
    Se connecter

    Météo par heure à Galata

    Ce jour, 17 Juin, Lundi

    Heure Température Précipitation Vent Pression Humidité
    00:00 +21°C° 0 mm 2 m/s 752 mmHg 63%
    01:00 +20°C° 0 mm 2 m/s 752 mmHg 63%
    02:00 +20°C° 0 mm 2 m/s 752 mmHg 63%
    03:00 +20°C° 0 mm 3 m/s 752 mmHg 64%
    04:00 +20°C° 0 mm 3 m/s 752 mmHg 64%
    05:00 +19°C° 0 mm 4 m/s 752 mmHg 64%
    06:00 +21°C° 0 mm 4 m/s 753 mmHg 62%
    07:00 +23°C° 0 mm 4 m/s 753 mmHg 61%
    08:00 +26°C° 0 mm 3 m/s 753 mmHg 59%
    09:00 +28°C° 0 mm 4 m/s 753 mmHg 54%
    10:00 +30°C° 0 mm 4 m/s 753 mmHg 50%
    11:00 +33°C° 0 mm 4 m/s 753 mmHg 45%
    12:00 +33°C° 0 mm 5 m/s 753 mmHg 48%
    13:00 +32°C° 0 mm 5 m/s 753 mmHg 52%
    14:00 +32°C° 0 mm 6 m/s 753 mmHg 55%
    15:00 +30°C° 0 mm 6 m/s 753 mmHg 57%
    16:00 +29°C° 0 mm 6 m/s 753 mmHg 59%
    17:00 +29°C° 0 mm 6 m/s 752 mmHg 62%
    18:00 +27°C° 0 mm 6 m/s 753 mmHg 70%
    19:00 +25°C° 0 mm 5 m/s 753 mmHg 78%
    20:00 +22°C° 0 mm 4 m/s 753 mmHg 86%
    21:00 +22°C° 0 mm 4 m/s 753 mmHg 86%
    22:00 +21°C° 0 mm 3 m/s 753 mmHg 86%
    23:00 +20°C° 0 mm 3 m/s 754 mmHg 86%

    Demain, 18 Juin, Mardi

    Heure Température Précipitation Vent Pression Humidité
    00:00 +20°C° 0 mm 3 m/s 753 mmHg 84%
    01:00 +19°C° 0 mm 3 m/s 753 mmHg 82%
    02:00 +19°C° 0 mm 3 m/s 753 mmHg 79%
    03:00 +19°C° 0 mm 3 m/s 753 mmHg 79%
    04:00 +19°C° 0 mm 4 m/s 753 mmHg 79%
    05:00 +19°C° 0 mm 4 m/s 753 mmHg 79%
    06:00 +21°C° 0 mm 4 m/s 753 mmHg 74%
    07:00 +23°C° 0 mm 4 m/s 754 mmHg 70%
    08:00 +26°C° 0 mm 4 m/s 754 mmHg 65%
    09:00 +27°C° 0 mm 4 m/s 754 mmHg 61%
    10:00 +29°C° 0 mm 4 m/s 754 mmHg 57%
    11:00 +30°C° 0 mm 4 m/s 754 mmHg 54%
    12:00 +30°C° 0.1 mm 4 m/s 754 mmHg 54%
    13:00 +30°C° 0.1 mm 4 m/s 754 mmHg 54%
    14:00 +30°C° 0.1 mm 4 m/s 754 mmHg 55%
    15:00 +29°C° 0 mm 4 m/s 753 mmHg 56%
    16:00 +29°C° 0 mm 4 m/s 753 mmHg 57%
    17:00 +28°C° 0 mm 4 m/s 753 mmHg 59%
    18:00 +27°C° 0 mm 4 m/s 753 mmHg 66%
    19:00 +25°C° 0 mm 3 m/s 753 mmHg 72%
    20:00 +22°C° 0 mm 3 m/s 753 mmHg 79%
    21:00 +21°C° 0 mm 3 m/s 753 mmHg 82%
    22:00 +20°C° 0 mm 2 m/s 753 mmHg 85%
    23:00 +20°C° 0 mm 2 m/s 753 mmHg 88%

    Après-demain, 19 Juin, Mercredi

    Heure Température Précipitation Vent Pression Humidité
    00:00 +19°C° 0 mm 2 m/s 753 mmHg 86%
    01:00 +19°C° 0 mm 2 m/s 753 mmHg 85%
    02:00 +19°C° 0 mm 3 m/s 753 mmHg 83%
    03:00 +19°C° 0 mm 3 m/s 753 mmHg 82%
    04:00 +19°C° 0 mm 3 m/s 753 mmHg 81%
    05:00 +19°C° 0 mm 3 m/s 753 mmHg 79%
    06:00 +21°C° 0 mm 4 m/s 753 mmHg 73%
    07:00 +23°C° 0 mm 4 m/s 753 mmHg 66%
    08:00 +26°C° 0 mm 4 m/s 753 mmHg 60%
    09:00 +27°C° 0 mm 4 m/s 753 mmHg 57%
    10:00 +29°C° 0 mm 4 m/s 753 mmHg 54%
    11:00 +30°C° 0 mm 4 m/s 753 mmHg 51%
    12:00 +30°C° 0 mm 4 m/s 753 mmHg 50%
    13:00 +30°C° 0 mm 4 m/s 753 mmHg 49%
    14:00 +30°C° 0 mm 4 m/s 752 mmHg 47%
    15:00 +30°C° 0 mm 4 m/s 752 mmHg 50%
    16:00 +29°C° 0 mm 4 m/s 752 mmHg 52%
    17:00 +29°C° 0 mm 4 m/s 752 mmHg 54%
    18:00 +27°C° 0 mm 3 m/s 752 mmHg 62%
    19:00 +25°C° 0 mm 3 m/s 752 mmHg 69%
    20:00 +23°C° 0 mm 2 m/s 752 mmHg 77%
    21:00 +21°C° 0 mm 2 m/s 752 mmHg 77%
    22:00 +21°C° 0 mm 2 m/s 752 mmHg 77%
    23:00 +20°C° 0 mm 2 m/s 752 mmHg 77%

    20 Juin, Jeudi

    Heure Température Précipitation Vent Pression Humidité
    00:00 +20°C° 0 mm 2 m/s 752 mmHg 78%
    01:00 +19°C° 0 mm 2 m/s 752 mmHg 79%
    02:00 +19°C° 0 mm 2 m/s 751 mmHg 80%
    03:00 +19°C° 0 mm 2 m/s 752 mmHg 79%
    04:00 +19°C° 0 mm 2 m/s 752 mmHg 79%
    05:00 +19°C° 0 mm 2 m/s 752 mmHg 78%
    06:00 +21°C° 0 mm 3 m/s 752 mmHg 72%
    07:00 +24°C° 0 mm 3 m/s 752 mmHg 66%
    08:00 +26°C° 0 mm 3 m/s 752 mmHg 60%
    09:00 +28°C° 0 mm 3 m/s 753 mmHg 55%
    10:00 +29°C° 0 mm 3 m/s 753 mmHg 51%
    11:00 +31°C° 0 mm 3 m/s 753 mmHg 47%
    12:00 +31°C° 0 mm 3 m/s 752 mmHg 46%
    13:00 +32°C° 0 mm 4 m/s 752 mmHg 46%
    14:00 +32°C° 0 mm 4 m/s 752 mmHg 46%
    15:00 +32°C° 0 mm 4 m/s 752 mmHg 49%
    16:00 +30°C° 0 mm 4 m/s 752 mmHg 52%
    17:00 +29°C° 0 mm 4 m/s 752 mmHg 55%
    18:00 +28°C° 0 mm 3 m/s 752 mmHg 63%
    19:00 +26°C° 0 mm 3 m/s 752 mmHg 71%
    20:00 +24°C° 0 mm 2 m/s 752 mmHg 79%
    21:00 +24°C° 0 mm 2 m/s 753 mmHg 81%
    22:00 +23°C° 0 mm 2 m/s 753 mmHg 82%
    23:00 +21°C° 0 mm 2 m/s 753 mmHg 84%

    21 Juin, Vendredi

    Heure Température Précipitation Vent Pression Humidité
    00:00 +21°C° 0 mm 2 m/s 753 mmHg 84%
    01:00 +21°C° 0 mm 2 m/s 753 mmHg 84%
    02:00 +21°C° 0 mm 3 m/s 753 mmHg 84%
    03:00 +21°C° 0 mm 3 m/s 753 mmHg 84%
    04:00 +21°C° 0 mm 3 m/s 753 mmHg 84%
    05:00 +20°C° 0 mm 3 m/s 753 mmHg 84%
    06:00 +22°C° 0 mm 3 m/s 753 mmHg 78%
    07:00 +26°C° 0 mm 4 m/s 753 mmHg 72%
    08:00 +28°C° 0 mm 4 m/s 753 mmHg 65%
    09:00 +29°C° 0 mm 4 m/s 754 mmHg 59%
    10:00 +30°C° 0 mm 5 m/s 754 mmHg 53%
    11:00 +32°C° 0 mm 5 m/s 754 mmHg 47%
    12:00 +32°C° 0 mm 6 m/s 754 mmHg 48%
    13:00 +32°C° 0 mm 6 m/s 753 mmHg 49%
    14:00 +32°C° 0 mm 6 m/s 753 mmHg 51%
    15:00 +32°C° 0 mm 6 m/s 753 mmHg 54%
    16:00 +30°C° 0 mm 6 m/s 753 mmHg 57%
    17:00 +29°C° 0 mm 6 m/s 753 mmHg 60%
    18:00 +28°C° 0 mm 5 m/s 753 mmHg 67%
    19:00 +26°C° 0 mm 4 m/s 753 mmHg 73%
    20:00 +24°C° 0 mm 3 m/s 753 mmHg 80%
    21:00 +24°C° 0 mm 3 m/s 753 mmHg 82%
    22:00 +22°C° 0 mm 3 m/s 754 mmHg 83%
    23:00 +21°C° 0 mm 2 m/s 754 mmHg 85%

    22 Juin, Samedi

    Heure Température Précipitation Vent Pression Humidité
    00:00 +21°C° 0 mm 2 m/s 754 mmHg 84%
    01:00 +20°C° 0 mm 2 m/s 754 mmHg 83%
    02:00 +20°C° 0 mm 2 m/s 753 mmHg 82%
    03:00 +20°C° 0 mm 3 m/s 753 mmHg 81%
    04:00 +20°C° 0 mm 3 m/s 753 mmHg 80%
    05:00 +19°C° 0 mm 3 m/s 753 mmHg 79%
    06:00 +21°C° 0 mm 3 m/s 754 mmHg 71%
    07:00 +25°C° 0 mm 3 m/s 754 mmHg 63%
    08:00 +27°C° 0 mm 3 m/s 754 mmHg 55%
    09:00 +28°C° 0 mm 3 m/s 754 mmHg 52%
    10:00 +30°C° 0 mm 3 m/s 754 mmHg 48%
    11:00 +31°C° 0 mm 3 m/s 754 mmHg 44%
    12:00 +31°C° 0 mm 3 m/s 754 mmHg 43%
    13:00 +33°C° 0 mm 3 m/s 754 mmHg 43%
    14:00 +33°C° 0 mm 4 m/s 754 mmHg 42%
    15:00 +32°C° 0 mm 4 m/s 753 mmHg 47%
    16:00 +30°C° 0 mm 4 m/s 753 mmHg 53%
    17:00 +29°C° 0 mm 4 m/s 753 mmHg 59%
    18:00 +28°C° 0 mm 3 m/s 753 mmHg 69%
    19:00 +26°C° 0 mm 3 m/s 753 mmHg 79%
    20:00 +24°C° 0 mm 2 m/s 754 mmHg 89%
    21:00 +23°C° 0 mm 2 m/s 754 mmHg 90%
    22:00 +23°C° 0 mm 2 m/s 754 mmHg 90%
    23:00 +21°C° 0 mm 2 m/s 754 mmHg 91%
    Voir plus